Regional Weather Roundup
Issued by NWS Pendleton, OR

Home | Current Version | Previous Version | Text Only | Print | Product List | Glossary On
Versions: 1 2 3 4 5 6 7 8 9 10 11 12 13 14 15 16 17 18 19 20 21 22 23 24 25 26 27 28 29 30 31 32 33 34 35 36 37 38 39 40 41 42 43 44 45 46 47 48 49 50
052
ASUS46 KPDT 261125
RWRPDT
PENDLETON REGIONAL WEATHER ROUNDUP
NATIONAL WEATHER SERVICE PENDLETON OREGON
400 AM PDT WED APR 26 2017

NOTE: FAIR INDICATES FEW OR NO CLOUDS BELOW 12,000 FEET WITH NO
SIGNIFICANT WEATHER AND/OR OBSTRUCTIONS TO VISIBILITY.

# INDICATES UNOFFICIAL STATION AND DATA

WAZ520-261210-
EAST SLOPES OF WASHINGTON CASCADES

CITY            SKY/WX      TMP DP  RH  WIND    PRES   REMARKS
#CLE ELUM HS    N/A         41  39  93  CALM    29.71F
#CLE ELUM LAKE  N/A         N/A N/A N/A W2      29.71F
#GLENWOOD       N/A         46  40  79  W3      29.79F
#MANASTASH CYN  N/A         35  35  100 CALM    29.73F
#NELSON 3SW     N/A         36  35  96  CALM    29.95S
#NILE           N/A         36  34  92  CALM    29.02F
#TEANAWAY 4NE   N/A         40  40  100 CALM    N/A
#TROUT LAKE 1NE N/A         42  40  93  CALM    29.81F
#TROUT LAKE 1E  N/A         40  38  92  CALM    29.82S
$$

WAZ521-261210-
SIMCOE HIGHLANDS

CITY            SKY/WX      TMP DP  RH  WIND    PRES   REMARKS
#BICKLETON HS   N/A         43  40  89  SW22    29.37F WCI 34
#CENTERVILLE 1SWN/A         45  40  82  W7      29.76F
#GOLDENDALE 4W  N/A         46  29  51  SW7     29.83F
#GOODNOE HILLS  N/A         47  43  86  W12     N/A    WCI 42
#LYLE 6NE       N/A         47  44  89  W7      29.77F
#PITT 4SE       N/A         43  41  93  SW6     29.83F
$$

WAZ026-261210-
KITTITAS VALLEY

CITY            SKY/WX      TMP DP  RH  WIND    PRES   REMARKS
ELLENSBURG AP   CLOUDY      45  39  79  W9      29.74S
#ELLENSBURG CWU N/A         43  39  86  W5      29.68R
#ELLENSBURG 3NE N/A         42  39  89  CALM    27.84S
#ELLENSBURG 1E  N/A         43  N/A N/A CALM    N/A
#ELLENSBURG 13S N/A         42  38  86  CALM    N/A
#KITTITAS 4N    N/A         41  37  86  NW5     29.76S
#KITTITAS 3S    N/A         41  39  93  CALM    29.74R
#THORP 6N       N/A         40  38  92  N14     29.76S WCI 32
$$

WAZ027-261210-
YAKIMA VALLEY

CITY            SKY/WX      TMP DP  RH  WIND    PRES   REMARKS
SUNNYSIDE AP    CLEAR       42  40  93  CALM    29.76S
YAKIMA AIRPORT  CLOUDY      42  38  86  W6      29.76S
YAKIMA-VAGABOND MOCLEAR     40  35  82  N5      29.74S
#DONALD 2NE     N/A         46  30  53  N2      28.59F
#GRANDVIEW      N/A         45  39  79  CALM    29.77S
#MABTON         N/A         46  40  79  W1      29.75S
#MOXEE 2E       N/A         39   0  19  CALM    29.75R
#NACHES 2SW     N/A         42  38  86  NW3     29.75F
#TERRACE HTS    N/A         41  38  89  CALM    29.73R
#TOPPENISH      N/A         43  40  89  CALM    29.67S
#WEST VALLEY    N/A         42  38  86  CALM    29.74S
#W YAKIMA       N/A         43  39  86  W1      29.75S
#WHITE SWAN 5E  N/A         48  40  74  CALM    29.75F
#WILEY CITY 3W  N/A         41  36  82  CALM    29.70F
$$

WAZ028-261210-
LOWER COLUMBIA BASIN...WASHINGTON

CITY            SKY/WX      TMP DP  RH  WIND    PRES   REMARKS
HANFORD         MOCLEAR     51  41  68  W12     29.73F
PASCO           CLEAR       52  43  71  SW14    29.77R
PROSSER AWOS    N/A         52  41  66  SW8     29.79S
RICHLAND AWOS   CLEAR       50  44  80  W7      29.77R
#BENTON CITY    N/A         48  43  83  W1      29.66S
#CONNELL 5N     N/A         46  44  93  SW1     29.73F
#CONNELL 5NW    N/A         46  43  89  S6      29.69F
#ELTOPIA 6NW    N/A         47  43  86  SW1     28.72S
#KAHLOTUS       N/A         48  44  86  W18     29.74S WCI 41
#KENNEWICK 3S   N/A         49  43  80  S7      29.75S
#PATERSON       N/A         46  43  89  NW1     29.77F
#SAGEMOOR 2W    N/A         47  42  83  SW6     29.62S
#TOUCHET 2S     N/A         52  45  77  SW10    29.76S
#WEST PASCO     N/A         52  44  74  S5      29.74S
$$

WAZ029-261210-
FOOTHILLS OF THE BLUES...WASHINGTON

CITY            SKY/WX      TMP DP  RH  WIND    PRES   REMARKS
WALLA WALLA AP  CLOUDY      52  46  80  S12     29.79R
#CLYDE 6NW      N/A         48  44  86  SW10    29.75S
#DAYTON SCHOOL  N/A         51  38  61  S13G25  29.80S
#LOWDEN 2SE     N/A         52  46  80  W8      29.75S
#PLEASANT VIEW 1N/A         45  43  93  SW9     29.78S
#PRESCOTT       N/A         49  45  86  SW2     29.75S
#WHITMAN COLLEGEN/A         51  46  83  SE2     29.83S
#WAITSBURG 5S   N/A         47  44  89  S9      29.87S
#WALLA WALLA 5E N/A         51  46  83  SW16    N/A
#WHITMAN MISSIONN/A         52  47  83  S2      29.80R
$$

WAZ030-261210-
BLUE MOUNTAINS...WASHINGTON

CITY            SKY/WX      TMP DP  RH  WIND    PRES   REMARKS
#DIXIE 5SE      N/A         44  41  89  S12     29.70S WCI 38
$$

ORZ009-041-WAZ024-261210-
COLUMBIA RIVER GORGE

CITY            SKY/WX      TMP DP  RH  WIND    PRES   REMARKS
THE DALLES AP   PTCLDY      49  46  89  CALM    29.80F
#ARLINGTON AIRPON/A         49  45  86  W7      29.79F
#CELILO DOT     N/A         50  45  83  SW2     N/A
#LYLE           N/A         54  49  83  W7      29.82F
#MOSIER 1S      N/A         50  42  74  CALM    29.79S
#MURDOCK        N/A         53  48  83  NW7     29.77F
#RUFUS DOT      N/A         51  46  83  SE6     N/A
#SMITHVILLE     N/A         50  47  89  W3      29.76F

$$

ORZ510-261210-
NORTH CENTRAL OREGON

CITY            SKY/WX      TMP DP  RH  WIND    PRES   REMARKS
#ANTELOPE       N/A         45  41  86  CALM    29.70F
#CHENOWITH 1W   N/A         45  44  96  NW6     N/A
#COW CYN RST AREN/A         45  41  86  CALM    N/A
#DUFUR          N/A         41  40  96  CALM    29.78F
#DUFUR 9E       N/A         44  42  93  CALM    29.86F
#GRASS VALLEY 1SN/A         40  38  92  CALM    29.95F
#KENT DOT       N/A         46  34  63  N15     N/A    WCI 40
#MAUPIN SCHOOL  N/A         54  43  66  W5      29.85F
#MORO SCHOOL    N/A         46  46  100 W2      29.89F
#SHANIKO 5WSW   N/A         44  32  62  N5      N/A
#SHANIKO 4NW    N/A         44  36  73  W10     29.81F
#TYGH VALLEY 2NEN/A         51  42  71  N1      29.79F
#WAPANITIA AIRPON/A         50  42  74  W7      29.83F
#WASCO 5NE      N/A         45  42  89  CALM    29.79F
$$

ORZ511-261210-
CENTRAL OREGON

CITY            SKY/WX      TMP DP  RH  WIND    PRES   REMARKS
BEND AIRPORT    PTCLDY      46  36  68  S10     29.81F
MADRAS AIRPORT  CLOUDY      48  36  63  SW14    29.81F WCI 42
PRINEVILLE AP   CLOUDY      43  39  86  S6      29.82F
REDMOND AIRPORT CLOUDY      43  36  76  E6      29.82F
#ASHWOOD SCHOOL N/A         50  39  66  CALM    29.79F
#BEND 1SW       N/A         44  37  76  SE3     N/A
#BEND-AWBREY    N/A         46  37  71  SW7     29.82F
#BEND-KIM LN    N/A         46  39  76  E5      29.76F
#CULVER         N/A         48  37  65  S10     29.74F
#CULVER 8W      N/A         48  37  65  S7      29.83F
#LAKE BILLY CHINN/A         50  N/A N/A S16     29.88F
#MADRAS 4S      N/A         50  10  19  SW15    29.88F
#POWELL BUTTE   N/A         47  36  65  W2      29.79F
#PRINEVILLE     N/A         45  39  79  SE1     29.92F
#PRINEVILLE 3N  N/A         43  40  89  N3      29.83F
#WARM SPRINGS   N/A         44  41  89  CALM    29.77F

$$


ORZ509-261210-
EAST SLOPES OF OREGON CASCADES

CITY            SKY/WX      TMP DP  RH  WIND    PRES   REMARKS
SISTERS AWOS    N/A         48  36  63  W9      29.80S
#BLUE BOX PASS  N/A         39  N/A N/A NW6     N/A
#CAMP SHERMAN   N/A         44  37  76  N2      29.87S
#LA PINE 4NW    N/A         42  34  73  CALM    29.93F
#LAVA BUTTE DOT N/A         41  32  70  S3      N/A
#SISTERS 3N     N/A         46  34  63  W6      29.85S
#TUMALO 3W      N/A         44  36  73  CALM    29.70F
#WANOGA BUTTE D N/A         35  33  92  W3      N/A

$$

ORZ044-261210-
LOWER COLUMBIA BASIN...OREGON

CITY            SKY/WX      TMP DP  RH  WIND    PRES   REMARKS
HERMISTON       PTCLDY      46  44  93  S7      29.80R
#BOARDMAN SCHOOLN/A         47  44  89  S3      29.79S
#BOARDMAN 8SW   N/A         49  45  86  S8      29.78F
#ECHO 8SW       N/A         48  45  89  CALM    29.81R
#I-84 EX 198 DOTN/A         48  44  86  E8      N/A
#IONE SCHOOL    N/A         48  29  47  CALM    29.81S
$$

ORZ507-261210-
NORTHERN FOOTHILLS OF THE BLUES

CITY            SKY/WX      TMP DP  RH  WIND    PRES   REMARKS
PENDLETON AIRPT MOCLDY      48  43  83  W7      29.81R
#ADAMS 3WNW     N/A         47  43  86  SW7     29.80R
#ATHENA         N/A         48  44  86  CALM    29.83R
#CAYUSE         N/A         50  44  80  W6      29.80R
#HELIX SCHOOL   N/A         47  43  86  SW9     29.78S
#HELIX 3N       N/A         46  43  89  SW15    29.76S WCI 40
#HOLDMAN 5SE    N/A         44  40  86  CALM    29.80R
#HOLDMAN 6E     N/A         45  44  96  S9      29.60R
#M-F FERNDALE   N/A         49  46  89  CALM    29.78R
#M-F GROVE ELEM N/A         52  43  71  S6      29.78R
#M-FREEWATER 5SEN/A         52  43  71  SW5     29.81R
#PENDLETON DNTN N/A         48  44  86  CALM    29.80S
#PDT AQUATIC CTRN/A         51  45  80  CALM    29.82S
#PDT SUNRIDGE   N/A         50  44  80  CALM    29.83R
#PENDLETON 7NW  N/A         47  42  83  W2      31.51S
#PILOT ROCK 1S  N/A         48  37  65  S5      29.83R
#PILOT ROCK     N/A         47  41  79  SW3     29.83R
#TUTUILLA       N/A         48  44  86  CALM    29.82R
#UMAPINE 2E     N/A         52  46  80  SW3     29.76R
#WESTON SCHOOL  N/A         49  40  71  W7      29.82R

$$

ORZ508-261210-
SOUTHERN FOOTHILLS OF THE BLUES

CITY            SKY/WX      TMP DP  RH  WIND    PRES   REMARKS
LEXINGTON       MOCLDY      46  41  83  SE3     29.83F
#AJAX           N/A         45  35  68  CALM    29.96F
#CONDON SCHOOL  N/A          0  -78  1  CALM    29.78S
#CONDON 5W      N/A         44  36  73  W17G28  29.78S WCI 36
#HEPPNER EOC    N/A         49  40  71  CALM    29.75R
#HEPPNER 4NE    N/A         45  40  82  SW3     29.81R
#LEXINGTON 2SE  N/A         46  40  79  CALM    29.77R
#MIKKALO        N/A         45  40  82  CALM    29.90F
#OLEX 4N        N/A         48  44  86  SW1     29.80S
#RUGGS 5NE      N/A         46  39  76  SW10    29.94R
#RUGGS 2SW      N/A         48  39  71  W15G24  29.82F WCI 42

$$

ORZ502-503-261210-
BLUE MOUNTAINS

CITY            SKY/WX      TMP DP  RH  WIND    PRES   REMARKS
MEACHAM         CLOUDY      42  37  82  VRB3    29.81R
#BATTLE MTN DOT N/A         37  36  96  S1      N/A
#GREENHORN 9SW  N/A         37  36  96  CALM    26.05S
#HARDMAN 10S    N/A         39  37  92  CALM    29.97F
#LADD CYN SMT   N/A         40  39  96  SE14    N/A    WCI 32
#LADD CREEK ODOTN/A         41  40  96  S2      N/A
#LONG CREEK HS  N/A         43  42  96  CALM    N/A
#N POWDER DOT   N/A         40  39  96  W3      N/A
#PIKES PEAK     N/A         42  38  86  N25G32  27.99S WCI 32
#TOLLGATE       N/A         35  34  96  S6      29.67
#TROY SCHOOL    N/A         45  42  89  CALM    29.65S
#UKIAH          N/A         38  36  92  CALM    29.77S
#WESTON 4E      N/A         43  41  93  SW7     29.79S
$$

ORZ505-261210-
JOHN DAY BASIN

CITY            SKY/WX      TMP DP  RH  WIND    PRES   REMARKS
JOHN DAY        CLOUDY      42  38  86  CALM    29.86S
#ANTELOPE 9ESE  N/A         45  43  93  CALM    N/A
#DAYVILLE SCHOOLN/A         45  39  79  SE2     29.83S
#MITCHELL       N/A         45  43  93  CALM    29.99F
#MITCHELL 8NW   N/A         47  36  65  SW5     29.84F
#MONUMENT HS    N/A         45  42  89  CALM    29.82S
#MT. VERNON 5SE N/A         43  38  82  W1      29.81S
#SPRAY SCHOOL   N/A         44  N/A N/A CALM    N/A
$$

ORZ506-261210-
OCHOCO AND JOHN DAY HIGHLANDS

CITY            SKY/WX      TMP DP  RH  WIND    PRES   REMARKS
#HORSE RIDGE DO N/A         45  32  60  SW8     N/A
#PAULINA ODOT   N/A         42  40  93  NE1     N/A
#PINE MTN OBS   N/A         35  31  85  S6      N/A
#PRAIRIE CITY   N/A         38  36  92  CALM    30.02
#SENECA 9NW     N/A         37  36  96  CALM    29.88S
$$

ORZ049-261210-
GRANDE RONDE VALLEY

CITY            SKY/WX      TMP DP  RH  WIND    PRES   REMARKS
LA GRANDE       CLOUDY      43  39  86  E9      29.81S
#COVE           N/A         43  43  100 E3      29.87R
#COVE SCHOOL    N/A         43  41  93  CALM    29.86R
#COVE 6NW       N/A         43  41  93  CALM    29.83S
#ELGIN 3N       N/A         42  40  93  CALM    29.80S
#ELGIN 1E       N/A         44  39  82  CALM    N/A
#IMBLER SCHOOL  N/A         42  39  89  CALM    29.80R
#ISLAND CITY 4N N/A         48  47  96  CALM    29.88F
#UNION 1S       N/A         44  41  89  SE3     29.84S
$$

ORZ050-261210-
WALLOWA COUNTY

CITY            SKY/WX      TMP DP  RH  WIND    PRES   REMARKS
JOSEPH AIRPORT  LGT DRIZZLE 39  39  100 CALM    29.81S
#IMNAHA SCHOOL  N/A         48  44  86  N1      29.81
#IMNAHA 10S     N/A         41  39  93  W1      29.81S
#JOSEPH 3N      N/A         38  33  82  CALM    29.85S
#JOSEPH 3W      N/A         36  35  96  CALM    29.66S
#LOSTINE        N/A         40  38  92  CALM    29.63S
#LOSTINE 3SE    N/A         40  39  96  CALM    29.84S
#MT HOWARD 8000 N/A         28  26  92  W9G30   29.74F
#PROMISE 1S     N/A         39  37  92  SW5     29.88F
#WALLOWA SCHOOL N/A         41  39  93  CALM    29.79S



$$



USA.gov is the U.S. government's official web portal to all federal, state and local government web resources and services.